When you browse on this site, cookies collect data to enhance your experience and personalize the content and advertising you see.
Visit our Privacy Policy to learn more. By continuing to use the site, you agree to this use of cookies and data.
  • In Netherlands
  • List of Countries
  • For 7 days
  • Water Temperature
  • Satellite Maps
  • Weather Map
  • Weather Widgets
  • user-avatar
    Login

    Hourly Weather Rypin

    Today, 23 April, Tuesday

    Time Temperature Precipitation Wind Pressure Humidity
    00:00 +8°C° 0 mm 5 mps 756 mmHg 59%
    01:00 +8°C° 0 mm 5 mps 756 mmHg 57%
    02:00 +7°C° 0 mm 5 mps 755 mmHg 56%
    03:00 +7°C° 0 mm 6 mps 755 mmHg 55%
    04:00 +7°C° 0 mm 6 mps 755 mmHg 55%
    05:00 +8°C° 0 mm 7 mps 755 mmHg 53%
    06:00 +9°C° 0 mm 8 mps 755 mmHg 52%
    07:00 +10°C° 0 mm 9 mps 755 mmHg 49%
    08:00 +11°C° 0 mm 10 mps 755 mmHg 46%
    09:00 +13°C° 0 mm 11 mps 755 mmHg 42%
    10:00 +14°C° 0 mm 11 mps 754 mmHg 39%
    11:00 +15°C° 0 mm 12 mps 754 mmHg 39%
    12:00 +15°C° 0 mm 12 mps 754 mmHg 39%
    13:00 +17°C° 0 mm 12 mps 753 mmHg 39%
    14:00 +17°C° 0 mm 11 mps 753 mmHg 40%
    15:00 +17°C° 0 mm 11 mps 752 mmHg 42%
    16:00 +17°C° 0 mm 10 mps 752 mmHg 43%
    17:00 +15°C° 0 mm 9 mps 752 mmHg 46%
    18:00 +13°C° 0 mm 8 mps 752 mmHg 48%
    19:00 +12°C° 0 mm 7 mps 752 mmHg 51%
    20:00 +12°C° 0 mm 7 mps 752 mmHg 51%
    21:00 +11°C° 0 mm 8 mps 752 mmHg 50%
    22:00 +11°C° 0 mm 8 mps 752 mmHg 50%
    23:00 +11°C° 0 mm 8 mps 752 mmHg 51%

    Tomorrow, 24 April, Wednesday

    Time Temperature Precipitation Wind Pressure Humidity
    00:00 +10°C° 0 mm 8 mps 751 mmHg 52%
    01:00 +10°C° 0 mm 8 mps 751 mmHg 53%
    02:00 +10°C° 0 mm 8 mps 751 mmHg 53%
    03:00 +9°C° 0 mm 8 mps 751 mmHg 54%
    04:00 +9°C° 0 mm 8 mps 751 mmHg 55%
    05:00 +10°C° 0 mm 9 mps 751 mmHg 56%
    06:00 +10°C° 0 mm 9 mps 751 mmHg 57%
    07:00 +10°C° 0 mm 9 mps 751 mmHg 58%
    08:00 +12°C° 0 mm 9 mps 751 mmHg 56%
    09:00 +13°C° 0 mm 10 mps 751 mmHg 54%
    10:00 +14°C° 0 mm 10 mps 751 mmHg 52%
    11:00 +16°C° 0 mm 10 mps 751 mmHg 51%
    12:00 +17°C° 0 mm 10 mps 750 mmHg 51%
    13:00 +17°C° 0 mm 10 mps 750 mmHg 50%
    14:00 +17°C° 0 mm 9 mps 750 mmHg 52%
    15:00 +18°C° 0 mm 8 mps 750 mmHg 55%
    16:00 +18°C° 0 mm 8 mps 750 mmHg 57%
    17:00 +17°C° 0 mm 7 mps 750 mmHg 60%
    18:00 +16°C° 0 mm 6 mps 750 mmHg 64%
    19:00 +15°C° 0 mm 6 mps 750 mmHg 67%
    20:00 +14°C° 0 mm 6 mps 750 mmHg 70%
    21:00 +14°C° 0 mm 6 mps 750 mmHg 72%
    22:00 +13°C° 0 mm 6 mps 750 mmHg 75%
    23:00 +13°C° 0 mm 6 mps 750 mmHg 77%

    Day after tomorrow, 25 April, Thursday

    Time Temperature Precipitation Wind Pressure Humidity
    00:00 +11°C° 0 mm 6 mps 750 mmHg 80%
    01:00 +11°C° 0 mm 6 mps 750 mmHg 82%
    02:00 +11°C° 0 mm 6 mps 750 mmHg 82%
    03:00 +11°C° 0 mm 6 mps 750 mmHg 82%
    04:00 +11°C° 0 mm 6 mps 750 mmHg 81%
    05:00 +13°C° 0 mm 6 mps 750 mmHg 80%
    06:00 +14°C° 0 mm 5 mps 750 mmHg 79%
    07:00 +14°C° 0 mm 5 mps 750 mmHg 78%
    08:00 +16°C° 0 mm 5 mps 750 mmHg 73%
    09:00 +19°C° 0 mm 5 mps 750 mmHg 68%
    10:00 +20°C° 0 mm 5 mps 750 mmHg 64%
    11:00 +21°C° 0 mm 5 mps 750 mmHg 60%
    12:00 +23°C° 0 mm 4 mps 750 mmHg 56%
    13:00 +25°C° 0 mm 4 mps 750 mmHg 52%
    14:00 +23°C° 0 mm 4 mps 750 mmHg 55%
    15:00 +24°C° 0 mm 3 mps 749 mmHg 58%
    16:00 +23°C° 0 mm 2 mps 749 mmHg 60%
    17:00 +21°C° 0 mm 2 mps 749 mmHg 64%
    18:00 +21°C° 0 mm 1 mps 749 mmHg 67%
    19:00 +19°C° 0 mm 1 mps 749 mmHg 71%
    20:00 +18°C° 0 mm 1 mps 749 mmHg 73%
    21:00 +18°C° 0 mm 1 mps 749 mmHg 76%
    22:00 +16°C° 0 mm 2 mps 750 mmHg 78%
    23:00 +15°C° 0 mm 2 mps 749 mmHg 81%

    26 April, Friday

    Time Temperature Precipitation Wind Pressure Humidity
    00:00 +15°C° 0 mm 2 mps 749 mmHg 83%
    01:00 +14°C° 0 mm 2 mps 749 mmHg 85%
    02:00 +14°C° 0 mm 2 mps 749 mmHg 87%
    03:00 +14°C° 0 mm 2 mps 749 mmHg 88%
    04:00 +12°C° 0 mm 3 mps 749 mmHg 89%
    05:00 +14°C° 0 mm 3 mps 748 mmHg 85%
    06:00 +16°C° 0 mm 3 mps 748 mmHg 81%
    07:00 +17°C° 0 mm 3 mps 748 mmHg 76%
    08:00 +19°C° 0 mm 4 mps 748 mmHg 70%
    09:00 +21°C° 0 mm 4 mps 747 mmHg 64%
    10:00 +23°C° 0 mm 4 mps 747 mmHg 58%
    11:00 +25°C° 0 mm 4 mps 747 mmHg 54%
    12:00 +26°C° 0 mm 4 mps 746 mmHg 51%
    13:00 +27°C° 0 mm 4 mps 746 mmHg 47%
    14:00 +26°C° 0 mm 3 mps 745 mmHg 50%
    15:00 +26°C° 0 mm 2 mps 745 mmHg 53%
    16:00 +25°C° 0 mm 2 mps 745 mmHg 56%
    17:00 +24°C° 0 mm 2 mps 745 mmHg 59%
    18:00 +23°C° 0 mm 1 mps 744 mmHg 62%
    19:00 +21°C° 0 mm 1 mps 744 mmHg 65%
    20:00 +21°C° 0 mm 1 mps 744 mmHg 67%
    21:00 +20°C° 0 mm 1 mps 744 mmHg 70%
    22:00 +18°C° 0 mm 2 mps 744 mmHg 72%
    23:00 +18°C° 0 mm 1 mps 744 mmHg 73%

    27 April, Saturday

    Time Temperature Precipitation Wind Pressure Humidity
    00:00 +18°C° 0 mm 1 mps 744 mmHg 74%
    01:00 +18°C° 0 mm 1 mps 744 mmHg 75%
    02:00 +16°C° 0 mm 1 mps 743 mmHg 78%
    03:00 +16°C° 0 mm 1 mps 743 mmHg 80%
    04:00 +16°C° 0 mm 1 mps 743 mmHg 82%
    05:00 +16°C° 0.2 mm 2 mps 743 mmHg 83%
    06:00 +17°C° 0.2 mm 3 mps 743 mmHg 83%
    07:00 +17°C° 0.2 mm 3 mps 743 mmHg 83%
    08:00 +17°C° 0.4 mm 4 mps 744 mmHg 82%
    09:00 +18°C° 0.4 mm 4 mps 744 mmHg 81%
    10:00 +17°C° 0.4 mm 5 mps 744 mmHg 80%
    11:00 +17°C° 0.1 mm 5 mps 744 mmHg 79%
    12:00 +17°C° 0.1 mm 5 mps 745 mmHg 77%
    13:00 +17°C° 0.1 mm 5 mps 745 mmHg 76%
    14:00 +15°C° 0.1 mm 5 mps 745 mmHg 79%
    15:00 +14°C° 0.1 mm 5 mps 745 mmHg 81%
    16:00 +11°C° 0.1 mm 6 mps 745 mmHg 83%
    17:00 +10°C° 0.1 mm 6 mps 746 mmHg 81%
    18:00 +10°C° 0.1 mm 6 mps 746 mmHg 80%
    19:00 +9°C° 0.1 mm 5 mps 746 mmHg 78%
    20:00 +9°C° 0 mm 5 mps 747 mmHg 77%
    21:00 +9°C° 0 mm 5 mps 747 mmHg 75%
    22:00 +9°C° 0 mm 5 mps 747 mmHg 73%
    23:00 +8°C° 0 mm 5 mps 747 mmHg 75%

    28 April, Sunday

    Time Temperature Precipitation Wind Pressure Humidity
    00:00 +8°C° 0 mm 5 mps 748 mmHg 77%
    01:00 +8°C° 0 mm 5 mps 748 mmHg 79%
    02:00 +8°C° 0 mm 4 mps 748 mmHg 82%
    03:00 +8°C° 0 mm 4 mps 748 mmHg 85%
    04:00 +9°C° 0 mm 3 mps 748 mmHg 88%
    05:00 +8°C° 0 mm 4 mps 748 mmHg 85%
    06:00 +10°C° 0 mm 4 mps 749 mmHg 83%
    07:00 +11°C° 0 mm 4 mps 749 mmHg 81%
    08:00 +12°C° 0 mm 4 mps 749 mmHg 74%
    09:00 +13°C° 0 mm 4 mps 750 mmHg 66%
    10:00 +15°C° 0 mm 4 mps 750 mmHg 59%
    11:00 +17°C° 0 mm 4 mps 750 mmHg 55%
    12:00 +17°C° 0 mm 4 mps 750 mmHg 51%
    13:00 +18°C° 0 mm 4 mps 750 mmHg 47%
    14:00 +18°C° 0 mm 4 mps 750 mmHg 47%
    15:00 +18°C° 0 mm 3 mps 750 mmHg 47%
    16:00 +18°C° 0 mm 3 mps 750 mmHg 47%
    17:00 +17°C° 0 mm 3 mps 750 mmHg 54%
    18:00 +15°C° 0 mm 2 mps 751 mmHg 61%
    19:00 +13°C° 0 mm 2 mps 751 mmHg 68%
    20:00 +13°C° 0 mm 2 mps 751 mmHg 72%
    21:00 +12°C° 0 mm 2 mps 751 mmHg 76%
    22:00 +10°C° 0 mm 2 mps 752 mmHg 79%
    23:00 +9°C° 0 mm 2 mps 752 mmHg 82%
    Show more